Location: Goleszów
(49.7327°N, 18.7414°E)
Time: 05:26:34
(UTC+02:00)

ISS - Visible Passes

Search period start: 28 May 2018 00:00
Search period end: 07 June 2018 00:00
Orbit: 402 x 407 km, 51.6° (Epoch: 28 May)

Date Brightness Start Highest point End Pass type
(mag) Time Alt. Az. Time Alt. Az. Time Alt. Az.
28 May -1.5 01:07:39 10° W 01:08:21 15° W 01:08:21 15° W visible
28 May -3.5 22:38:45 10° WNW 22:42:01 65° N 22:45:05 11° E visible
29 May -3.0 00:15:19 10° WNW 00:17:42 37° WSW 00:17:42 37° WSW visible
29 May -3.3 21:46:29 10° WNW 21:49:44 59° N 21:52:59 10° E visible
29 May -3.9 23:23:03 10° WNW 23:26:18 69° SSW 23:27:06 46° SE visible
30 May -3.9 22:30:47 10° WNW 22:34:04 86° NNE 22:36:30 17° ESE visible
31 May -2.0 00:07:31 10° W 00:09:08 20° WSW 00:09:08 20° WSW visible
31 May -3.5 21:38:31 10° WNW 21:41:47 69° N 21:45:03 10° E visible
31 May -3.3 23:15:06 10° W 23:18:11 40° SSW 23:18:34 38° S visible
01 Jun -3.7 22:22:46 10° WNW 22:26:00 61° SSW 22:28:02 20° SE visible
02 Jun -1.3 00:00:13 10° WSW 00:00:40 12° WSW 00:00:40 12° WSW visible
02 Jun -3.8 21:30:27 10° WNW 21:33:45 86° SSW 21:37:01 10° ESE visible
02 Jun -2.3 23:07:19 10° W 23:09:55 22° SW 23:10:09 22° SSW visible
03 Jun -2.9 22:14:46 10° W 22:17:47 34° SSW 22:19:40 18° SSE visible
04 Jun -3.5 21:22:22 10° WNW 21:25:35 52° SSW 21:28:46 10° SE visible
04 Jun -1.4 23:00:18 10° WSW 23:01:28 11° SW 23:01:50 11° SW visible
05 Jun -1.9 22:07:01 10° W 22:09:24 19° SW 22:11:24 12° S visible
